Date Hour Ending, MW ,,,,,,,,,,,,,,,,,
 07/01/2016 1:00,356,,,,,,,,,,,,,,,,,
 07/01/2016 2:00,291,,,,,,,,,,,,,,,,,
 07/01/2016 3:00,272,,,,,,,,,,,,,,,,,
 07/01/2016 4:00,211,,,,,,,,,,,,,,,,,
 07/01/2016 5:00,207,,,,,,,,,,,,,,,,,
 07/01/2016 6:00,194,,,,,,,,,,,,,,,,,
 07/01/2016 7:00,215,,,,,,,,,,,,,,,,,
 07/01/2016 8:00,291,,,,,,,,,,,,,,,,,
 07/01/2016 9:00,424,,,,,,,,,,,,,,,,,
 07/01/2016 10:00,498,,,,,,,,,,,,,,,,,
 07/01/2016 11:00,533,,,,,,,,,,,,,,,,,
 07/01/2016 12:00,544,,,,,,,,,,,,,,,,,
 07/01/2016 13:00,537,,,,,,,,,,,,,,,,,
 07/01/2016 14:00,499,,,,,,,,,,,,,,,,,
 07/01/2016 15:00,407,,,,,,,,,,,,,,,,,
 07/01/2016 16:00,347,,,,,,,,,,,,,,,,,
 07/01/2016 17:00,366,,,,,,,,,,,,,,,,,
 07/01/2016 18:00,430,,,,,,,,,,,,,,,,,
 07/01/2016 19:00,408,,,,,,,,,,,,,,,,,
 07/01/2016 20:00,370,,,,,,,,,,,,,,,,,
 07/01/2016 21:00,346,,,,,,,,,,,,,,,,,
 07/01/2016 22:00,335,,,,,,,,,,,,,,,,,
 07/01/2016 23:00,339,,,,,,,,,,,,,,,,,
 07/02/2016 0:00,324,,,,,,,,,,,,,,,,,
 07/02/2016 1:00,284,,,,,,,,,,,,,,,,,
 07/02/2016 2:00,261,,,,,,,,,,,,,,,,,
 07/02/2016 3:00,229,,,,,,,,,,,,,,,,,
 07/02/2016 4:00,186,,,,,,,,,,,,,,,,,
 07/02/2016 5:00,155,,,,,,,,,,,,,,,,,
 07/02/2016 6:00,104,,,,,,,,,,,,,,,,,
 07/02/2016 7:00,88,,,,,,,,,,,,,,,,,
 07/02/2016 8:00,120,,,,,,,,,,,,,,,,,
 07/02/2016 9:00,180,,,,,,,,,,,,,,,,,
 07/02/2016 10:00,193,,,,,,,,,,,,,,,,,
 07/02/2016 11:00,192,,,,,,,,,,,,,,,,,
 07/02/2016 12:00,200,,,,,,,,,,,,,,,,,
 07/02/2016 13:00,199,,,,,,,,,,,,,,,,,
 07/02/2016 14:00,197,,,,,,,,,,,,,,,,,
 07/02/2016 15:00,187,,,,,,,,,,,,,,,,,
 07/02/2016 16:00,182,,,,,,,,,,,,,,,,,
 07/02/2016 17:00,192,,,,,,,,,,,,,,,,,
 07/02/2016 18:00,231,,,,,,,,,,,,,,,,,
 07/02/2016 19:00,213,,,,,,,,,,,,,,,,,
 07/02/2016 20:00,215,,,,,,,,,,,,,,,,,
 07/02/2016 21:00,236,,,,,,,,,,,,,,,,,
 07/02/2016 22:00,256,,,,,,,,,,,,,,,,,
 07/02/2016 23:00,236,,,,,,,,,,,,,,,,,
 07/03/2016 0:00,239,,,,,,,,,,,,,,,,,
 07/03/2016 1:00,238,,,,,,,,,,,,,,,,,
 07/03/2016 2:00,155,,,,,,,,,,,,,,,,,
 07/03/2016 3:00,116,,,,,,,,,,,,,,,,,
 07/03/2016 4:00,115,,,,,,,,,,,,,,,,,
 07/03/2016 5:00,124,,,,,,,,,,,,,,,,,
 07/03/2016 6:00,119,,,,,,,,,,,,,,,,,
 07/03/2016 7:00,104,,,,,,,,,,,,,,,,,
 07/03/2016 8:00,118,,,,,,,,,,,,,,,,,
 07/03/2016 9:00,146,,,,,,,,,,,,,,,,,
 07/03/2016 10:00,176,,,,,,,,,,,,,,,,,
 07/03/2016 11:00,149,,,,,,,,,,,,,,,,,
 07/03/2016 12:00,125,,,,,,,,,,,,,,,,,
 07/03/2016 13:00,130,,,,,,,,,,,,,,,,,
 07/03/2016 14:00,118,,,,,,,,,,,,,,,,,
 07/03/2016 15:00,104,,,,,,,,,,,,,,,,,
 07/03/2016 16:00,102,,,,,,,,,,,,,,,,,
 07/03/2016 17:00,93,,,,,,,,,,,,,,,,,
 07/03/2016 18:00,98,,,,,,,,,,,,,,,,,
 07/03/2016 19:00,106,,,,,,,,,,,,,,,,,
 07/03/2016 20:00,118,,,,,,,,,,,,,,,,,
 07/03/2016 21:00,129,,,,,,,,,,,,,,,,,
 07/03/2016 22:00,179,,,,,,,,,,,,,,,,,
 07/03/2016 23:00,173,,,,,,,,,,,,,,,,,
 07/04/2016 0:00,162,,,,,,,,,,,,,,,,,
 07/04/2016 1:00,144,,,,,,,,,,,,,,,,,
 07/04/2016 2:00,106,,,,,,,,,,,,,,,,,
 07/04/2016 3:00,106,,,,,,,,,,,,,,,,,
 07/04/2016 4:00,150,,,,,,,,,,,,,,,,,
 07/04/2016 5:00,185,,,,,,,,,,,,,,,,,
 07/04/2016 6:00,160,,,,,,,,,,,,,,,,,
 07/04/2016 7:00,169,,,,,,,,,,,,,,,,,
 07/04/2016 8:00,230,,,,,,,,,,,,,,,,,
 07/04/2016 9:00,367,,,,,,,,,,,,,,,,,
 07/04/2016 10:00,408,,,,,,,,,,,,,,,,,
 07/04/2016 11:00,401,,,,,,,,,,,,,,,,,
 07/04/2016 12:00,420,,,,,,,,,,,,,,,,,
 07/04/2016 13:00,434,,,,,,,,,,,,,,,,,
 07/04/2016 14:00,420,,,,,,,,,,,,,,,,,
 07/04/2016 15:00,348,,,,,,,,,,,,,,,,,
 07/04/2016 16:00,320,,,,,,,,,,,,,,,,,
 07/04/2016 17:00,346,,,,,,,,,,,,,,,,,
 07/04/2016 18:00,361,,,,,,,,,,,,,,,,,
 07/04/2016 19:00,353,,,,,,,,,,,,,,,,,
 07/04/2016 20:00,323,,,,,,,,,,,,,,,,,
 07/04/2016 21:00,290,,,,,,,,,,,,,,,,,
 07/04/2016 22:00,265,,,,,,,,,,,,,,,,,
 07/04/2016 23:00,236,,,,,,,,,,,,,,,,,
 07/05/2016 0:00,174,,,,,,,,,,,,,,,,,
 07/05/2016 1:00,130,,,,,,,,,,,,,,,,,
 07/05/2016 2:00,98,,,,,,,,,,,,,,,,,
 07/05/2016 3:00,112,,,,,,,,,,,,,,,,,
 07/05/2016 4:00,126,,,,,,,,,,,,,,,,,
 07/05/2016 5:00,138,,,,,,,,,,,,,,,,,
 07/05/2016 6:00,158,,,,,,,,,,,,,,,,,
 07/05/2016 7:00,185,,,,,,,,,,,,,,,,,
 07/05/2016 8:00,272,,,,,,,,,,,,,,,,,
 07/05/2016 9:00,376,,,,,,,,,,,,,,,,,
 07/05/2016 10:00,456,,,,,,,,,,,,,,,,,
 07/05/2016 11:00,463,,,,,,,,,,,,,,,,,
 07/05/2016 12:00,470,,,,,,,,,,,,,,,,,
 07/05/2016 13:00,447,,,,,,,,,,,,,,,,,
 07/05/2016 14:00,397,,,,,,,,,,,,,,,,,
 07/05/2016 15:00,409,,,,,,,,,,,,,,,,,
 07/05/2016 16:00,442,,,,,,,,,,,,,,,,,
 07/05/2016 17:00,454,,,,,,,,,,,,,,,,,
 07/05/2016 18:00,455,,,,,,,,,,,,,,,,,
 07/05/2016 19:00,450,,,,,,,,,,,,,,,,,
 07/05/2016 20:00,454,,,,,,,,,,,,,,,,,
 07/05/2016 21:00,458,,,,,,,,,,,,,,,,,
 07/05/2016 22:00,495,,,,,,,,,,,,,,,,,
 07/05/2016 23:00,458,,,,,,,,,,,,,,,,,
 07/06/2016 0:00,315,,,,,,,,,,,,,,,,,
 07/06/2016 1:00,217,,,,,,,,,,,,,,,,,
 07/06/2016 2:00,208,,,,,,,,,,,,,,,,,
 07/06/2016 3:00,181,,,,,,,,,,,,,,,,,
 07/06/2016 4:00,175,,,,,,,,,,,,,,,,,
 07/06/2016 5:00,190,,,,,,,,,,,,,,,,,
 07/06/2016 6:00,214,,,,,,,,,,,,,,,,,
 07/06/2016 7:00,329,,,,,,,,,,,,,,,,,
 07/06/2016 8:00,451,,,,,,,,,,,,,,,,,
 07/06/2016 9:00,501,,,,,,,,,,,,,,,,,
 07/06/2016 10:00,527,,,,,,,,,,,,,,,,,
 07/06/2016 11:00,526,,,,,,,,,,,,,,,,,
 07/06/2016 12:00,519,,,,,,,,,,,,,,,,,
 07/06/2016 13:00,526,,,,,,,,,,,,,,,,,
 07/06/2016 14:00,536,,,,,,,,,,,,,,,,,
 07/06/2016 15:00,547,,,,,,,,,,,,,,,,,
 07/06/2016 16:00,553,,,,,,,,,,,,,,,,,
 07/06/2016 17:00,527,,,,,,,,,,,,,,,,,
 07/06/2016 18:00,496,,,,,,,,,,,,,,,,,
 07/06/2016 19:00,449,,,,,,,,,,,,,,,,,
 07/06/2016 20:00,450,,,,,,,,,,,,,,,,,
 07/06/2016 21:00,437,,,,,,,,,,,,,,,,,
 07/06/2016 22:00,457,,,,,,,,,,,,,,,,,
 07/06/2016 23:00,421,,,,,,,,,,,,,,,,,
 07/07/2016 0:00,328,,,,,,,,,,,,,,,,,
 07/07/2016 1:00,233,,,,,,,,,,,,,,,,,
 07/07/2016 2:00,202,,,,,,,,,,,,,,,,,
 07/07/2016 3:00,191,,,,,,,,,,,,,,,,,
 07/07/2016 4:00,181,,,,,,,,,,,,,,,,,
 07/07/2016 5:00,191,,,,,,,,,,,,,,,,,
 07/07/2016 6:00,259,,,,,,,,,,,,,,,,,
 07/07/2016 7:00,365,,,,,,,,,,,,,,,,,
 07/07/2016 8:00,432,,,,,,,,,,,,,,,,,
 07/07/2016 9:00,482,,,,,,,,,,,,,,,,,
 07/07/2016 10:00,493,,,,,,,,,,,,,,,,,
 07/07/2016 11:00,514,,,,,,,,,,,,,,,,,
 07/07/2016 12:00,533,,,,,,,,,,,,,,,,,
 07/07/2016 13:00,538,,,,,,,,,,,,,,,,,
 07/07/2016 14:00,522,,,,,,,,,,,,,,,,,
 07/07/2016 15:00,501,,,,,,,,,,,,,,,,,
 07/07/2016 16:00,509,,,,,,,,,,,,,,,,,
 07/07/2016 17:00,499,,,,,,,,,,,,,,,,,
 07/07/2016 18:00,501,,,,,,,,,,,,,,,,,
 07/07/2016 19:00,444,,,,,,,,,,,,,,,,,
 07/07/2016 20:00,379,,,,,,,,,,,,,,,,,
 07/07/2016 21:00,339,,,,,,,,,,,,,,,,,
 07/07/2016 22:00,282,,,,,,,,,,,,,,,,,
 07/07/2016 23:00,229,,,,,,,,,,,,,,,,,
 07/08/2016 0:00,169,,,,,,,,,,,,,,,,,
 07/08/2016 1:00,152,,,,,,,,,,,,,,,,,
 07/08/2016 2:00,181,,,,,,,,,,,,,,,,,
 07/08/2016 3:00,183,,,,,,,,,,,,,,,,,
 07/08/2016 4:00,161,,,,,,,,,,,,,,,,,
 07/08/2016 5:00,154,,,,,,,,,,,,,,,,,
 07/08/2016 6:00,164,,,,,,,,,,,,,,,,,
 07/08/2016 7:00,212,,,,,,,,,,,,,,,,,
 07/08/2016 8:00,323,,,,,,,,,,,,,,,,,
 07/08/2016 9:00,375,,,,,,,,,,,,,,,,,
 07/08/2016 10:00,365,,,,,,,,,,,,,,,,,
 07/08/2016 11:00,369,,,,,,,,,,,,,,,,,
 07/08/2016 12:00,365,,,,,,,,,,,,,,,,,
 07/08/2016 13:00,332,,,,,,,,,,,,,,,,,
 07/08/2016 14:00,332,,,,,,,,,,,,,,,,,
 07/08/2016 15:00,286,,,,,,,,,,,,,,,,,
 07/08/2016 16:00,282,,,,,,,,,,,,,,,,,
 07/08/2016 17:00,301,,,,,,,,,,,,,,,,,
 07/08/2016 18:00,308,,,,,,,,,,,,,,,,,
 07/08/2016 19:00,296,,,,,,,,,,,,,,,,,
 07/08/2016 20:00,291,,,,,,,,,,,,,,,,,
 07/08/2016 21:00,292,,,,,,,,,,,,,,,,,
 07/08/2016 22:00,282,,,,,,,,,,,,,,,,,
 07/08/2016 23:00,296,,,,,,,,,,,,,,,,,
 07/09/2016 0:00,330,,,,,,,,,,,,,,,,,
 07/09/2016 1:00,283,,,,,,,,,,,,,,,,,
 07/09/2016 2:00,259,,,,,,,,,,,,,,,,,
 07/09/2016 3:00,241,,,,,,,,,,,,,,,,,
 07/09/2016 4:00,223,,,,,,,,,,,,,,,,,
 07/09/2016 5:00,228,,,,,,,,,,,,,,,,,
 07/09/2016 6:00,217,,,,,,,,,,,,,,,,,
 07/09/2016 7:00,206,,,,,,,,,,,,,,,,,
 07/09/2016 8:00,194,,,,,,,,,,,,,,,,,
 07/09/2016 9:00,193,,,,,,,,,,,,,,,,,
 07/09/2016 10:00,198,,,,,,,,,,,,,,,,,
 07/09/2016 11:00,240,,,,,,,,,,,,,,,,,
 07/09/2016 12:00,263,,,,,,,,,,,,,,,,,
 07/09/2016 13:00,262,,,,,,,,,,,,,,,,,
 07/09/2016 14:00,247,,,,,,,,,,,,,,,,,
 07/09/2016 15:00,239,,,,,,,,,,,,,,,,,
 07/09/2016 16:00,223,,,,,,,,,,,,,,,,,
 07/09/2016 17:00,219,,,,,,,,,,,,,,,,,
 07/09/2016 18:00,229,,,,,,,,,,,,,,,,,
 07/09/2016 19:00,247,,,,,,,,,,,,,,,,,
 07/09/2016 20:00,220,,,,,,,,,,,,,,,,,
 07/09/2016 21:00,237,,,,,,,,,,,,,,,,,
 07/09/2016 22:00,241,,,,,,,,,,,,,,,,,
 07/09/2016 23:00,247,,,,,,,,,,,,,,,,,
 07/10/2016 0:00,209,,,,,,,,,,,,,,,,,
 07/10/2016 1:00,165,,,,,,,,,,,,,,,,,
 07/10/2016 2:00,191,,,,,,,,,,,,,,,,,
 07/10/2016 3:00,173,,,,,,,,,,,,,,,,,
 07/10/2016 4:00,154,,,,,,,,,,,,,,,,,
 07/10/2016 5:00,135,,,,,,,,,,,,,,,,,
 07/10/2016 6:00,138,,,,,,,,,,,,,,,,,
 07/10/2016 7:00,141,,,,,,,,,,,,,,,,,
 07/10/2016 8:00,139,,,,,,,,,,,,,,,,,
 07/10/2016 9:00,161,,,,,,,,,,,,,,,,,
 07/10/2016 10:00,213,,,,,,,,,,,,,,,,,
 07/10/2016 11:00,280,,,,,,,,,,,,,,,,,
 07/10/2016 12:00,296,,,,,,,,,,,,,,,,,
 07/10/2016 13:00,304,,,,,,,,,,,,,,,,,
 07/10/2016 14:00,305,,,,,,,,,,,,,,,,,
 07/10/2016 15:00,303,,,,,,,,,,,,,,,,,
 07/10/2016 16:00,303,,,,,,,,,,,,,,,,,
 07/10/2016 17:00,306,,,,,,,,,,,,,,,,,
 07/10/2016 18:00,333,,,,,,,,,,,,,,,,,
 07/10/2016 19:00,300,,,,,,,,,,,,,,,,,
 07/10/2016 20:00,292,,,,,,,,,,,,,,,,,
 07/10/2016 21:00,302,,,,,,,,,,,,,,,,,
 07/10/2016 22:00,299,,,,,,,,,,,,,,,,,
 07/10/2016 23:00,255,,,,,,,,,,,,,,,,,
 07/11/2016 0:00,190,,,,,,,,,,,,,,,,,
 07/11/2016 1:00,128,,,,,,,,,,,,,,,,,
 07/11/2016 2:00,125,,,,,,,,,,,,,,,,,
 07/11/2016 3:00,120,,,,,,,,,,,,,,,,,
 07/11/2016 4:00,107,,,,,,,,,,,,,,,,,
 07/11/2016 5:00,94,,,,,,,,,,,,,,,,,
 07/11/2016 6:00,105,,,,,,,,,,,,,,,,,
 07/11/2016 7:00,161,,,,,,,,,,,,,,,,,
 07/11/2016 8:00,197,,,,,,,,,,,,,,,,,
 07/11/2016 9:00,243,,,,,,,,,,,,,,,,,
 07/11/2016 10:00,291,,,,,,,,,,,,,,,,,
 07/11/2016 11:00,325,,,,,,,,,,,,,,,,,
 07/11/2016 12:00,342,,,,,,,,,,,,,,,,,
 07/11/2016 13:00,378,,,,,,,,,,,,,,,,,
 07/11/2016 14:00,349,,,,,,,,,,,,,,,,,
 07/11/2016 15:00,334,,,,,,,,,,,,,,,,,
 07/11/2016 16:00,296,,,,,,,,,,,,,,,,,
 07/11/2016 17:00,352,,,,,,,,,,,,,,,,,
 07/11/2016 18:00,367,,,,,,,,,,,,,,,,,
 07/11/2016 19:00,317,,,,,,,,,,,,,,,,,
 07/11/2016 20:00,315,,,,,,,,,,,,,,,,,
 07/11/2016 21:00,290,,,,,,,,,,,,,,,,,
 07/11/2016 22:00,284,,,,,,,,,,,,,,,,,
 07/11/2016 23:00,236,,,,,,,,,,,,,,,,,
 07/12/2016 0:00,196,,,,,,,,,,,,,,,,,
 07/12/2016 1:00,152,,,,,,,,,,,,,,,,,
 07/12/2016 2:00,152,,,,,,,,,,,,,,,,,
 07/12/2016 3:00,160,,,,,,,,,,,,,,,,,
 07/12/2016 4:00,157,,,,,,,,,,,,,,,,,
 07/12/2016 5:00,178,,,,,,,,,,,,,,,,,
 07/12/2016 6:00,208,,,,,,,,,,,,,,,,,
 07/12/2016 7:00,262,,,,,,,,,,,,,,,,,
 07/12/2016 8:00,312,,,,,,,,,,,,,,,,,
 07/12/2016 9:00,409,,,,,,,,,,,,,,,,,
 07/12/2016 10:00,453,,,,,,,,,,,,,,,,,
 07/12/2016 11:00,449,,,,,,,,,,,,,,,,,
 07/12/2016 12:00,476,,,,,,,,,,,,,,,,,
 07/12/2016 13:00,484,,,,,,,,,,,,,,,,,
 07/12/2016 14:00,435,,,,,,,,,,,,,,,,,
 07/12/2016 15:00,443,,,,,,,,,,,,,,,,,
 07/12/2016 16:00,434,,,,,,,,,,,,,,,,,
 07/12/2016 17:00,425,,,,,,,,,,,,,,,,,
 07/12/2016 18:00,449,,,,,,,,,,,,,,,,,
 07/12/2016 19:00,416,,,,,,,,,,,,,,,,,
 07/12/2016 20:00,430,,,,,,,,,,,,,,,,,
 07/12/2016 21:00,434,,,,,,,,,,,,,,,,,
 07/12/2016 22:00,439,,,,,,,,,,,,,,,,,
 07/12/2016 23:00,417,,,,,,,,,,,,,,,,,
 07/13/2016 0:00,338,,,,,,,,,,,,,,,,,
 07/13/2016 1:00,254,,,,,,,,,,,,,,,,,
 07/13/2016 2:00,183,,,,,,,,,,,,,,,,,
 07/13/2016 3:00,165,,,,,,,,,,,,,,,,,
 07/13/2016 4:00,157,,,,,,,,,,,,,,,,,
 07/13/2016 5:00,155,,,,,,,,,,,,,,,,,
 07/13/2016 6:00,167,,,,,,,,,,,,,,,,,
 07/13/2016 7:00,297,,,,,,,,,,,,,,,,,
 07/13/2016 8:00,370,,,,,,,,,,,,,,,,,
 07/13/2016 9:00,423,,,,,,,,,,,,,,,,,
 07/13/2016 10:00,476,,,,,,,,,,,,,,,,,
 07/13/2016 11:00,478,,,,,,,,,,,,,,,,,
 07/13/2016 12:00,491,,,,,,,,,,,,,,,,,
 07/13/2016 13:00,476,,,,,,,,,,,,,,,,,
 07/13/2016 14:00,465,,,,,,,,,,,,,,,,,
 07/13/2016 15:00,474,,,,,,,,,,,,,,,,,
 07/13/2016 16:00,464,,,,,,,,,,,,,,,,,
 07/13/2016 17:00,445,,,,,,,,,,,,,,,,,
 07/13/2016 18:00,429,,,,,,,,,,,,,,,,,
 07/13/2016 19:00,401,,,,,,,,,,,,,,,,,
 07/13/2016 20:00,364,,,,,,,,,,,,,,,,,
 07/13/2016 21:00,378,,,,,,,,,,,,,,,,,
 07/13/2016 22:00,366,,,,,,,,,,,,,,,,,
 07/13/2016 23:00,279,,,,,,,,,,,,,,,,,
 07/14/2016 0:00,150,,,,,,,,,,,,,,,,,
 07/14/2016 1:00,133,,,,,,,,,,,,,,,,,
 07/14/2016 2:00,122,,,,,,,,,,,,,,,,,
 07/14/2016 3:00,93,,,,,,,,,,,,,,,,,
 07/14/2016 4:00,107,,,,,,,,,,,,,,,,,
 07/14/2016 5:00,118,,,,,,,,,,,,,,,,,
 07/14/2016 6:00,126,,,,,,,,,,,,,,,,,
 07/14/2016 7:00,128,,,,,,,,,,,,,,,,,
 07/14/2016 8:00,160,,,,,,,,,,,,,,,,,
 07/14/2016 9:00,227,,,,,,,,,,,,,,,,,
 07/14/2016 10:00,263,,,,,,,,,,,,,,,,,
 07/14/2016 11:00,324,,,,,,,,,,,,,,,,,
 07/14/2016 12:00,339,,,,,,,,,,,,,,,,,
 07/14/2016 13:00,340,,,,,,,,,,,,,,,,,
 07/14/2016 14:00,322,,,,,,,,,,,,,,,,,
 07/14/2016 15:00,321,,,,,,,,,,,,,,,,,
 07/14/2016 16:00,323,,,,,,,,,,,,,,,,,
 07/14/2016 17:00,345,,,,,,,,,,,,,,,,,
 07/14/2016 18:00,343,,,,,,,,,,,,,,,,,
 07/14/2016 19:00,299,,,,,,,,,,,,,,,,,
 07/14/2016 20:00,282,,,,,,,,,,,,,,,,,
 07/14/2016 21:00,258,,,,,,,,,,,,,,,,,
 07/14/2016 22:00,257,,,,,,,,,,,,,,,,,
 07/14/2016 23:00,233,,,,,,,,,,,,,,,,,
 07/15/2016 0:00,223,,,,,,,,,,,,,,,,,
 07/15/2016 1:00,210,,,,,,,,,,,,,,,,,
 07/15/2016 2:00,191,,,,,,,,,,,,,,,,,
 07/15/2016 3:00,152,,,,,,,,,,,,,,,,,
 07/15/2016 4:00,156,,,,,,,,,,,,,,,,,
 07/15/2016 5:00,173,,,,,,,,,,,,,,,,,
 07/15/2016 6:00,224,,,,,,,,,,,,,,,,,
 07/15/2016 7:00,275,,,,,,,,,,,,,,,,,
 07/15/2016 8:00,265,,,,,,,,,,,,,,,,,
 07/15/2016 9:00,351,,,,,,,,,,,,,,,,,
 07/15/2016 10:00,403,,,,,,,,,,,,,,,,,
 07/15/2016 11:00,415,,,,,,,,,,,,,,,,,
 07/15/2016 12:00,457,,,,,,,,,,,,,,,,,
 07/15/2016 13:00,464,,,,,,,,,,,,,,,,,
 07/15/2016 14:00,423,,,,,,,,,,,,,,,,,
 07/15/2016 15:00,379,,,,,,,,,,,,,,,,,
 07/15/2016 16:00,375,,,,,,,,,,,,,,,,,
 07/15/2016 17:00,378,,,,,,,,,,,,,,,,,
 07/15/2016 18:00,355,,,,,,,,,,,,,,,,,
 07/15/2016 19:00,368,,,,,,,,,,,,,,,,,
 07/15/2016 20:00,390,,,,,,,,,,,,,,,,,
 07/15/2016 21:00,361,,,,,,,,,,,,,,,,,
 07/15/2016 22:00,394,,,,,,,,,,,,,,,,,
 07/15/2016 23:00,347,,,,,,,,,,,,,,,,,
 07/16/2016 0:00,262,,,,,,,,,,,,,,,,,
 07/16/2016 1:00,209,,,,,,,,,,,,,,,,,
 07/16/2016 2:00,162,,,,,,,,,,,,,,,,,
 07/16/2016 3:00,187,,,,,,,,,,,,,,,,,
 07/16/2016 4:00,185,,,,,,,,,,,,,,,,,
 07/16/2016 5:00,198,,,,,,,,,,,,,,,,,
 07/16/2016 6:00,201,,,,,,,,,,,,,,,,,
 07/16/2016 7:00,228,,,,,,,,,,,,,,,,,
 07/16/2016 8:00,316,,,,,,,,,,,,,,,,,
 07/16/2016 9:00,416,,,,,,,,,,,,,,,,,
 07/16/2016 10:00,476,,,,,,,,,,,,,,,,,
 07/16/2016 11:00,495,,,,,,,,,,,,,,,,,
 07/16/2016 12:00,451,,,,,,,,,,,,,,,,,
 07/16/2016 13:00,406,,,,,,,,,,,,,,,,,
 07/16/2016 14:00,400,,,,,,,,,,,,,,,,,
 07/16/2016 15:00,386,,,,,,,,,,,,,,,,,
 07/16/2016 16:00,394,,,,,,,,,,,,,,,,,
 07/16/2016 17:00,434,,,,,,,,,,,,,,,,,
 07/16/2016 18:00,432,,,,,,,,,,,,,,,,,
 07/16/2016 19:00,396,,,,,,,,,,,,,,,,,
 07/16/2016 20:00,386,,,,,,,,,,,,,,,,,
 07/16/2016 21:00,350,,,,,,,,,,,,,,,,,
 07/16/2016 22:00,345,,,,,,,,,,,,,,,,,
 07/16/2016 23:00,378,,,,,,,,,,,,,,,,,
 07/17/2016 0:00,281,,,,,,,,,,,,,,,,,
 07/17/2016 1:00,233,,,,,,,,,,,,,,,,,
 07/17/2016 2:00,218,,,,,,,,,,,,,,,,,
 07/17/2016 3:00,236,,,,,,,,,,,,,,,,,
 07/17/2016 4:00,228,,,,,,,,,,,,,,,,,
 07/17/2016 5:00,228,,,,,,,,,,,,,,,,,
 07/17/2016 6:00,216,,,,,,,,,,,,,,,,,
 07/17/2016 7:00,216,,,,,,,,,,,,,,,,,
 07/17/2016 8:00,285,,,,,,,,,,,,,,,,,
 07/17/2016 9:00,305,,,,,,,,,,,,,,,,,
 07/17/2016 10:00,363,,,,,,,,,,,,,,,,,
 07/17/2016 11:00,406,,,,,,,,,,,,,,,,,
 07/17/2016 12:00,404,,,,,,,,,,,,,,,,,
 07/17/2016 13:00,387,,,,,,,,,,,,,,,,,
 07/17/2016 14:00,371,,,,,,,,,,,,,,,,,
 07/17/2016 15:00,346,,,,,,,,,,,,,,,,,
 07/17/2016 16:00,380,,,,,,,,,,,,,,,,,
 07/17/2016 17:00,414,,,,,,,,,,,,,,,,,
 07/17/2016 18:00,466,,,,,,,,,,,,,,,,,
 07/17/2016 19:00,440,,,,,,,,,,,,,,,,,
 07/17/2016 20:00,397,,,,,,,,,,,,,,,,,
 07/17/2016 21:00,386,,,,,,,,,,,,,,,,,
 07/17/2016 22:00,421,,,,,,,,,,,,,,,,,
 07/17/2016 23:00,397,,,,,,,,,,,,,,,,,
 07/18/2016 0:00,291,,,,,,,,,,,,,,,,,
 07/18/2016 1:00,267,,,,,,,,,,,,,,,,,
 07/18/2016 2:00,267,,,,,,,,,,,,,,,,,
 07/18/2016 3:00,213,,,,,,,,,,,,,,,,,
 07/18/2016 4:00,194,,,,,,,,,,,,,,,,,
 07/18/2016 5:00,177,,,,,,,,,,,,,,,,,
 07/18/2016 6:00,209,,,,,,,,,,,,,,,,,
 07/18/2016 7:00,264,,,,,,,,,,,,,,,,,
 07/18/2016 8:00,428,,,,,,,,,,,,,,,,,
 07/18/2016 9:00,530,,,,,,,,,,,,,,,,,
 07/18/2016 10:00,517,,,,,,,,,,,,,,,,,
 07/18/2016 11:00,352,,,,,,,,,,,,,,,,,
 07/18/2016 12:00,384,,,,,,,,,,,,,,,,,
 07/18/2016 13:00,346,,,,,,,,,,,,,,,,,
 07/18/2016 14:00,381,,,,,,,,,,,,,,,,,
 07/18/2016 15:00,346,,,,,,,,,,,,,,,,,
 07/18/2016 16:00,298,,,,,,,,,,,,,,,,,
 07/18/2016 17:00,308,,,,,,,,,,,,,,,,,
 07/18/2016 18:00,313,,,,,,,,,,,,,,,,,
 07/18/2016 19:00,290,,,,,,,,,,,,,,,,,
 07/18/2016 20:00,222,,,,,,,,,,,,,,,,,
 07/18/2016 21:00,211,,,,,,,,,,,,,,,,,
 07/18/2016 22:00,198,,,,,,,,,,,,,,,,,
 07/18/2016 23:00,173,,,,,,,,,,,,,,,,,
 07/19/2016 0:00,144,,,,,,,,,,,,,,,,,
 07/19/2016 1:00,114,,,,,,,,,,,,,,,,,
 07/19/2016 2:00,121,,,,,,,,,,,,,,,,,
 07/19/2016 3:00,136,,,,,,,,,,,,,,,,,
 07/19/2016 4:00,152,,,,,,,,,,,,,,,,,
 07/19/2016 5:00,162,,,,,,,,,,,,,,,,,
 07/19/2016 6:00,158,,,,,,,,,,,,,,,,,
 07/19/2016 7:00,168,,,,,,,,,,,,,,,,,
 07/19/2016 8:00,247,,,,,,,,,,,,,,,,,
 07/19/2016 9:00,233,,,,,,,,,,,,,,,,,
 07/19/2016 10:00,235,,,,,,,,,,,,,,,,,
 07/19/2016 11:00,278,,,,,,,,,,,,,,,,,
 07/19/2016 12:00,303,,,,,,,,,,,,,,,,,
 07/19/2016 13:00,303,,,,,,,,,,,,,,,,,
 07/19/2016 14:00,313,,,,,,,,,,,,,,,,,
 07/19/2016 15:00,345,,,,,,,,,,,,,,,,,
 07/19/2016 16:00,342,,,,,,,,,,,,,,,,,
 07/19/2016 17:00,387,,,,,,,,,,,,,,,,,
 07/19/2016 18:00,368,,,,,,,,,,,,,,,,,
 07/19/2016 19:00,362,,,,,,,,,,,,,,,,,
 07/19/2016 20:00,290,,,,,,,,,,,,,,,,,
 07/19/2016 21:00,207,,,,,,,,,,,,,,,,,
 07/19/2016 22:00,211,,,,,,,,,,,,,,,,,
 07/19/2016 23:00,196,,,,,,,,,,,,,,,,,
 07/20/2016 0:00,177,,,,,,,,,,,,,,,,,
 07/20/2016 1:00,148,,,,,,,,,,,,,,,,,
 07/20/2016 2:00,133,,,,,,,,,,,,,,,,,
 07/20/2016 3:00,127,,,,,,,,,,,,,,,,,
 07/20/2016 4:00,118,,,,,,,,,,,,,,,,,
 07/20/2016 5:00,106,,,,,,,,,,,,,,,,,
 07/20/2016 6:00,148,,,,,,,,,,,,,,,,,
 07/20/2016 7:00,229,,,,,,,,,,,,,,,,,
 07/20/2016 8:00,270,,,,,,,,,,,,,,,,,
 07/20/2016 9:00,307,,,,,,,,,,,,,,,,,
 07/20/2016 10:00,296,,,,,,,,,,,,,,,,,
 07/20/2016 11:00,258,,,,,,,,,,,,,,,,,
 07/20/2016 12:00,259,,,,,,,,,,,,,,,,,
 07/20/2016 13:00,258,,,,,,,,,,,,,,,,,
 07/20/2016 14:00,233,,,,,,,,,,,,,,,,,
 07/20/2016 15:00,234,,,,,,,,,,,,,,,,,
 07/20/2016 16:00,252,,,,,,,,,,,,,,,,,
 07/20/2016 17:00,253,,,,,,,,,,,,,,,,,
 07/20/2016 18:00,246,,,,,,,,,,,,,,,,,
 07/20/2016 19:00,254,,,,,,,,,,,,,,,,,
 07/20/2016 20:00,254,,,,,,,,,,,,,,,,,
 07/20/2016 21:00,255,,,,,,,,,,,,,,,,,
 07/20/2016 22:00,260,,,,,,,,,,,,,,,,,
 07/20/2016 23:00,293,,,,,,,,,,,,,,,,,
 07/21/2016 0:00,271,,,,,,,,,,,,,,,,,
 07/21/2016 1:00,163,,,,,,,,,,,,,,,,,
 07/21/2016 2:00,131,,,,,,,,,,,,,,,,,
 07/21/2016 3:00,126,,,,,,,,,,,,,,,,,
 07/21/2016 4:00,133,,,,,,,,,,,,,,,,,
 07/21/2016 5:00,141,,,,,,,,,,,,,,,,,
 07/21/2016 6:00,143,,,,,,,,,,,,,,,,,
 07/21/2016 7:00,181,,,,,,,,,,,,,,,,,
 07/21/2016 8:00,245,,,,,,,,,,,,,,,,,
 07/21/2016 9:00,279,,,,,,,,,,,,,,,,,
 07/21/2016 10:00,355,,,,,,,,,,,,,,,,,
 07/21/2016 11:00,372,,,,,,,,,,,,,,,,,
 07/21/2016 12:00,365,,,,,,,,,,,,,,,,,
 07/21/2016 13:00,357,,,,,,,,,,,,,,,,,
 07/21/2016 14:00,364,,,,,,,,,,,,,,,,,
 07/21/2016 15:00,360,,,,,,,,,,,,,,,,,
 07/21/2016 16:00,366,,,,,,,,,,,,,,,,,
 07/21/2016 17:00,372,,,,,,,,,,,,,,,,,
 07/21/2016 18:00,347,,,,,,,,,,,,,,,,,
 07/21/2016 19:00,254,,,,,,,,,,,,,,,,,
 07/21/2016 20:00,231,,,,,,,,,,,,,,,,,
 07/21/2016 21:00,200,,,,,,,,,,,,,,,,,
 07/21/2016 22:00,214,,,,,,,,,,,,,,,,,
 07/21/2016 23:00,125,,,,,,,,,,,,,,,,,
 07/22/2016 0:00,85,,,,,,,,,,,,,,,,,
 07/22/2016 1:00,108,,,,,,,,,,,,,,,,,
 07/22/2016 2:00,124,,,,,,,,,,,,,,,,,
 07/22/2016 3:00,123,,,,,,,,,,,,,,,,,
 07/22/2016 4:00,114,,,,,,,,,,,,,,,,,
 07/22/2016 5:00,117,,,,,,,,,,,,,,,,,
 07/22/2016 6:00,117,,,,,,,,,,,,,,,,,
 07/22/2016 7:00,120,,,,,,,,,,,,,,,,,
 07/22/2016 8:00,126,,,,,,,,,,,,,,,,,
 07/22/2016 9:00,139,,,,,,,,,,,,,,,,,
 07/22/2016 10:00,165,,,,,,,,,,,,,,,,,
 07/22/2016 11:00,172,,,,,,,,,,,,,,,,,
 07/22/2016 12:00,161,,,,,,,,,,,,,,,,,
 07/22/2016 13:00,149,,,,,,,,,,,,,,,,,
 07/22/2016 14:00,155,,,,,,,,,,,,,,,,,
 07/22/2016 15:00,180,,,,,,,,,,,,,,,,,
 07/22/2016 16:00,190,,,,,,,,,,,,,,,,,
 07/22/2016 17:00,178,,,,,,,,,,,,,,,,,
 07/22/2016 18:00,177,,,,,,,,,,,,,,,,,
 07/22/2016 19:00,129,,,,,,,,,,,,,,,,,
 07/22/2016 20:00,107,,,,,,,,,,,,,,,,,
 07/22/2016 21:00,110,,,,,,,,,,,,,,,,,
 07/22/2016 22:00,135,,,,,,,,,,,,,,,,,
 07/22/2016 23:00,154,,,,,,,,,,,,,,,,,
 07/23/2016 0:00,145,,,,,,,,,,,,,,,,,
 07/23/2016 1:00,166,,,,,,,,,,,,,,,,,
 07/23/2016 2:00,182,,,,,,,,,,,,,,,,,
 07/23/2016 3:00,197,,,,,,,,,,,,,,,,,
 07/23/2016 4:00,185,,,,,,,,,,,,,,,,,
 07/23/2016 5:00,184,,,,,,,,,,,,,,,,,
 07/23/2016 6:00,176,,,,,,,,,,,,,,,,,
 07/23/2016 7:00,175,,,,,,,,,,,,,,,,,
 07/23/2016 8:00,207,,,,,,,,,,,,,,,,,
 07/23/2016 9:00,227,,,,,,,,,,,,,,,,,
 07/23/2016 10:00,282,,,,,,,,,,,,,,,,,
 07/23/2016 11:00,322,,,,,,,,,,,,,,,,,
 07/23/2016 12:00,324,,,,,,,,,,,,,,,,,
 07/23/2016 13:00,322,,,,,,,,,,,,,,,,,
 07/23/2016 14:00,299,,,,,,,,,,,,,,,,,
 07/23/2016 15:00,298,,,,,,,,,,,,,,,,,
 07/23/2016 16:00,280,,,,,,,,,,,,,,,,,
 07/23/2016 17:00,260,,,,,,,,,,,,,,,,,
 07/23/2016 18:00,282,,,,,,,,,,,,,,,,,
 07/23/2016 19:00,307,,,,,,,,,,,,,,,,,
 07/23/2016 20:00,280,,,,,,,,,,,,,,,,,
 07/23/2016 21:00,237,,,,,,,,,,,,,,,,,
 07/23/2016 22:00,244,,,,,,,,,,,,,,,,,
 07/23/2016 23:00,268,,,,,,,,,,,,,,,,,
 07/24/2016 0:00,220,,,,,,,,,,,,,,,,,
 07/24/2016 1:00,229,,,,,,,,,,,,,,,,,
 07/24/2016 2:00,242,,,,,,,,,,,,,,,,,
 07/24/2016 3:00,226,,,,,,,,,,,,,,,,,
 07/24/2016 4:00,238,,,,,,,,,,,,,,,,,
 07/24/2016 5:00,234,,,,,,,,,,,,,,,,,
 07/24/2016 6:00,219,,,,,,,,,,,,,,,,,
 07/24/2016 7:00,206,,,,,,,,,,,,,,,,,
 07/24/2016 8:00,229,,,,,,,,,,,,,,,,,
 07/24/2016 9:00,282,,,,,,,,,,,,,,,,,
 07/24/2016 10:00,364,,,,,,,,,,,,,,,,,
 07/24/2016 11:00,384,,,,,,,,,,,,,,,,,
 07/24/2016 12:00,399,,,,,,,,,,,,,,,,,
 07/24/2016 13:00,382,,,,,,,,,,,,,,,,,
 07/24/2016 14:00,366,,,,,,,,,,,,,,,,,
 07/24/2016 15:00,372,,,,,,,,,,,,,,,,,
 07/24/2016 16:00,396,,,,,,,,,,,,,,,,,
 07/24/2016 17:00,390,,,,,,,,,,,,,,,,,
 07/24/2016 18:00,371,,,,,,,,,,,,,,,,,
 07/24/2016 19:00,363,,,,,,,,,,,,,,,,,
 07/24/2016 20:00,357,,,,,,,,,,,,,,,,,
 07/24/2016 21:00,343,,,,,,,,,,,,,,,,,
 07/24/2016 22:00,363,,,,,,,,,,,,,,,,,
 07/24/2016 23:00,309,,,,,,,,,,,,,,,,,
 07/25/2016 0:00,263,,,,,,,,,,,,,,,,,
 07/25/2016 1:00,230,,,,,,,,,,,,,,,,,
 07/25/2016 2:00,205,,,,,,,,,,,,,,,,,
 07/25/2016 3:00,185,,,,,,,,,,,,,,,,,
 07/25/2016 4:00,174,,,,,,,,,,,,,,,,,
 07/25/2016 5:00,198,,,,,,,,,,,,,,,,,
 07/25/2016 6:00,193,,,,,,,,,,,,,,,,,
 07/25/2016 7:00,250,,,,,,,,,,,,,,,,,
 07/25/2016 8:00,235,,,,,,,,,,,,,,,,,
 07/25/2016 9:00,240,,,,,,,,,,,,,,,,,
 07/25/2016 10:00,320,,,,,,,,,,,,,,,,,
 07/25/2016 11:00,411,,,,,,,,,,,,,,,,,
 07/25/2016 12:00,434,,,,,,,,,,,,,,,,,
 07/25/2016 13:00,462,,,,,,,,,,,,,,,,,
 07/25/2016 14:00,472,,,,,,,,,,,,,,,,,
 07/25/2016 15:00,475,,,,,,,,,,,,,,,,,
 07/25/2016 16:00,452,,,,,,,,,,,,,,,,,
 07/25/2016 17:00,456,,,,,,,,,,,,,,,,,
 07/25/2016 18:00,445,,,,,,,,,,,,,,,,,
 07/25/2016 19:00,409,,,,,,,,,,,,,,,,,
 07/25/2016 20:00,410,,,,,,,,,,,,,,,,,
 07/25/2016 21:00,400,,,,,,,,,,,,,,,,,
 07/25/2016 22:00,394,,,,,,,,,,,,,,,,,
 07/25/2016 23:00,388,,,,,,,,,,,,,,,,,
 07/26/2016 0:00,342,,,,,,,,,,,,,,,,,
 07/26/2016 1:00,264,,,,,,,,,,,,,,,,,
 07/26/2016 2:00,275,,,,,,,,,,,,,,,,,
 07/26/2016 3:00,260,,,,,,,,,,,,,,,,,
 07/26/2016 4:00,252,,,,,,,,,,,,,,,,,
 07/26/2016 5:00,257,,,,,,,,,,,,,,,,,